Flag for Estonia Weather past 2 weeks in Narva, Estonia

Now
53 °F

Overcast.


Feels Like: 53 °F
Forecast: 52 / 63 °F
Wind: 1 mph from Southwest

Location: Narva

Current Time: Aug 28, 2014 at 2:23:54 AM

Latest Report: Aug 28, 2014 at 1:00 AM


Visibility: 9 mi

Pressure: 29.44 "Hg

Humidity: 99%

Dew point: 53 °F

Location of NarvaLocation

Historic Weather in Narva — Graph

°F

Narva temperature yesterday

Maximum temperature yesterday: 58 °F (at 5:00 PM)
Minimum temperature yesterday: 54 °F (at 1:00 AM)
Average temperature yesterday: 55 °F

Past Weeks' High & Low Weather Summary

 TemperatureHumidityPressure
High71 °F (Aug 13, 2:00 PM)100% (Aug 17, 8:00 AM)29.89 "Hg (Aug 17, 8:00 AM)
Low50 °F (Aug 23, 4:00 AM)48% (Aug 18, 4:00 PM)29.29 "Hg (Aug 26, 6:00 AM)
Average59 °F83%29.67 "Hg
* Reported Aug 13 1:00 AM — Aug 28 1:00 AM, Narva, Weather by CustomWeather, © 2014

Note: Actual official high and low records may vary slightly from our data, if they occured in-between our weather recording intervals... More about our weather records

Advertising

Narva weather history for previous 24 hours

 ConditionsComfort  
Time TempWeatherWind HumidityBarometerVisibility
1:00 AM
Aug 28
53 °FOvercast.1 mph99%29.44 "Hg9 mi
12:00 AM53 °FLots of rain. Overcast.1 mph99%29.44 "Hg6 mi
11:00 PM
Aug 27
54 °FRain showers. Overcast.1 mph99%29.44 "Hg6 mi
10:00 PM54 °FLight rain. Overcast.No wind99%29.44 "Hg5 mi
8:00 PM54 °FPassing clouds.1 mph97%29.44 "Hg12 mi
7:00 PM55 °FSunny.2 mph95%29.41 "Hg12 mi
6:00 PM58 °FPassing clouds.2 mph90%29.41 "Hg12 mi
5:00 PM58 °FLow clouds.2 mph90%29.41 "Hg12 mi
4:00 PM58 °FPartly sunny.3 mph91%29.41 "Hg12 mi
3:00 PM57 °FLight rain. Low clouds.5 mph96%29.41 "Hg12 mi
2:00 PM56 °FLight rain. Low clouds.3 mph98%29.38 "Hg12 mi
1:00 PM54 °FLight mixture of precip. Low clouds.5 mph98%29.38 "Hg2 mi
12:00 PM58 °FLow clouds.2 mph87%29.38 "Hg12 mi
11:00 AM57 °FLow clouds.5 mph88%29.38 "Hg12 mi
10:00 AM56 °FLow clouds.5 mph89%29.35 "Hg12 mi
9:00 AM56 °FLow clouds.5 mph91%29.35 "Hg12 mi
8:00 AM55 °FOvercast.5 mph92%29.35 "Hg12 mi
7:00 AM54 °FOvercast.5 mph92%29.35 "Hg12 mi
6:00 AM54 °FDrizzle. Overcast.6 mph91%29.35 "Hg12 mi
5:00 AM54 °FOvercast.5 mph91%29.35 "Hg12 mi
4:00 AM54 °FLow clouds.6 mph93%29.35 "Hg12 mi
3:00 AM54 °FLow clouds.3 mph94%29.38 "Hg12 mi
2:00 AM54 °FLow clouds.6 mph94%29.38 "Hg12 mi
Weather by CustomWeather, © 2014

See weather overviewHow to use our weather pages